Weather in Ustyvytsa

Ukraine / Poltava Region     49°52′02″N   33°48′17″E
temp.,
°C
wind,
m/s
gust,
m/s
humid.,
%
clouds,
%
prec.,
mm/h
press.,
hPa
HPBL,
m
17 april, sat
sat1700:00+5s5777100 0.0 1015847
03:00+5sse3686100 0.2 1016644
06:00+5sse3587100 0.3 1017785
09:00+5sse4591100 0.4 1018541
12:00+6sw4587100 0.3 1019890
15:00+6sw5790100 0.6 1020714
18:00+8w357599 0.1 1019935
21:00+6w1186100 0.3 102042
18 april, sun
sun1800:00+6sw3586100 0.0 1019168
03:00+4ssw359125 0.0 101984
06:00+4ssw348875 0.0 101991
09:00+8ssw357285 0.0 1019519
12:00+12ssw475860 0.0 10181532
15:00+13sw4753100 0.1 10171449
18:00+12wnw136296 0.0 1016196
21:00+10ese226596 0.0 101716
19 april, mon
mon1900:00+8e227140 0.0 101619
03:00+8ese226875 0.0 101517
06:00+7s227352 0.0 101517
09:00+12se235996 0.0 1015395
12:00+15se3343100 0.0 10142210
15:00+15se124499 0.0 10141429
18:00+13ese5559100 0.0 1013737
21:00+9e497998 0.1 1013263
20 april, tue
tue2000:00+7e3890100 0.0 1011209
03:00+7ene4990100 0.0 1009290
06:00+7ne41193100 0.0 1007341
09:00+10ene6983100 0.0 1003690
12:00+10nne71289100 2.1 998608
15:00+9n71296100 14.1 992657
18:00+8wnw71295100 12.2 991559
21:00+7w71194100 18.7 994650
21 april, wed
wed2100:00+5w91495100 4.1 998984
03:00+6w91492100 4.6 10031092
06:00+7wsw71384100 0.1 1006893
09:00+8wsw61076100 0.1 10101242
12:00+9wsw5773100 0.0 10131072
15:00+11wsw6760100 0.0 10151392
18:00+11sw4663100 0.0 1016948
21:00+7ssw3674100 0.0 101895